www.pogodaiklimat.ru

Погода и климат >> Архив погоды >> Индия >> Aminidivi


ПОГОДА в Aminidivi

  • Прогноз погоды в Aminidivi
  • Монитор погоды в Aminidivi
  • Климат города

АРХИВ ПОГОДЫ в Aminidivi

Время (UTC), дата Ветер
(напр.,м/с)
 
Видим.   Явления Облачность Т
(С)
Тd
(С)
f
(%)
Тe
(С)
Тes
(С)
Комфортность P
(гПа)
Po
(гПа)
Тmin
(С)
Tmax
(С)
R
(мм)
R24
(мм)
S
(см)
00 11.11 штиль 0 4000 м 3/3 600 м
[Sc]
+26.2 +27.1 100 +39 +39 очень
душно
1009.9 1010.0
03 11.11 нст 1 10 км 4/3 600 м
[Sc Ci fib]
+29.0 +26.5 86 +44 +47 опасность
перегрева
1012.7 1013.0 +23.6 +32.4
06 11.11 нст 1 10 км 5/5 600 м
[Sc]
+32.0 +26.4 72 +48 +57 опасность
перегрева
1012.6 1013.0
09 11.11 штиль 0 10 км 5/3 600 м
[Sc Ac trans]
+31.0 +25.7 73 +46 +56 опасность
перегрева
1010.1 1010.0
12 11.11 штиль 0 10 км 3/3 600 м
[Sc]
+31.0 +25.7 73 +46 +46 опасность
перегрева
1009.9 1010.0 +33.0
15 11.11 штиль 0 4000 м 4/4 600 м
[Sc]
+27.0 +25.6 92 +40 +40 очень
душно
1011.9 1012.0
18 11.11 штиль 0 4000 м 5/5 600 м
[Sc]
+26.0 +24.3 90 +36 +36 очень
душно
1012.2 1012.0
21 11.11 штиль 0 4000 м 3/3 600 м
[Sc]
+25.6 +24.7 95 +36 +36 очень
душно
1010.6 1011.0
00 12.11 З 2 4000 м 5/5 600 м
[Sc]
+27.6 +25.3 87 +40 +40 очень
душно
1009.9 1010.0
03 12.11 10 км н/о +29.0 +26.2 85 +44 +47 опасность
перегрева
1012.3 1012.0 +23.6 +33.0
06 12.11 штиль 0 10 км ясно +32.8 +26.7 70 +50 +70 опасность
перегрева
1012.6 1013.0
09 12.11 штиль 0 10 км 8/5 600 м
[Sc Ci fib]
+33.0 +27.5 73 +52 +60 опасность
перегрева
1009.1 1009.0
12 12.11 штиль 0 10 км 6/5 600 м
[Sc Ci fib]
+32.0 +28.2 80 +53 +53 опасность
перегрева
1008.8 1009.0 +33.8
15 12.11 штиль 0 4000 м 5/5 600 м
[Sc]
+29.0 +27.0 89 +46 +46 опасность
перегрева
1010.9 1011.0
18 12.11 штиль 0 4000 м 5/5 600 м
[Sc]
+28.2 +26.5 91 +44 +44 опасность
перегрева
1010.6 1011.0
21 12.11 штиль 0 4000 м 5/5 600 м
[Sc]
+28.0 +26.3 91 +43 +43 опасность
перегрева
1009.1 1009.0
00 13.11 З 1 4000 м 4/4 600 м
[Sc]
+28.4 +27.0 92 +45 +45 опасность
перегрева
1009.1 1009.0
03 13.11 штиль 0 4000 м 5/4 600 м
[Sc Ci fib]
+29.0 +26.8 88 +45 +48 опасность
перегрева
1010.6 1011.0 +26.0 +33.8
06 13.11 штиль 0 10 км 5/5 600 м
[Sc]
+32.0 +28.5 82 +54 +64 опасность
перегрева
1011.1 1011.0
09 13.11 штиль 0 10 км 5/5 600 м
[Sc]
+32.8 +28.7 79 +55 +64 опасность
перегрева
1007.9 1008.0
12 13.11 штиль 0 10 км 5/5 600 м
[Sc]
+31.0 +28.3 86 +52 +53 опасность
перегрева
1007.1 1007.0 +34.3
15 13.11 штиль 0 4000 м 3/3 600 м
[Sc]
+28.0 +25.7 87 +41 +41 опасность
перегрева
1009.1 1009.0
18 13.11 штиль 0 4000 м 3/3 600 м
[Sc]
+28.0 +25.7 87 +41 +41 опасность
перегрева
1009.9 1010.0
21 13.11 штиль 0 4000 м 3/3 600 м
[Sc]
+28.0 +25.7 87 +41 +41 опасность
перегрева
1008.1 1008.0
00 14.11 штиль 0 4000 м 1/1 600 м
[Sc]
+27.4 +24.5 84 +39 +39 очень
душно
1008.5 1009.0
03 14.11 З 2 10 км 5/4 600 м
[Sc Ac trans]
+29.0 +24.7 78 +41 +43 опасность
перегрева
1010.4 1010.0 +25.0 +34.3
06 14.11 З 2 10 км 8/6 600 м
[Sc Ac trans]
+32.8 +25.8 67 +48 +53 опасность
перегрева
1010.2 1010.0
09 14.11 З 2 10 км 4/4 600 м
[Sc]
+33.6 +26.7 67 +51 +59 опасность
перегрева
1007.5 1008.0
12 14.11 З 2 10 км 8/5 600 м
[Sc Ac trans]
+31.0 +28.3 86 +52 +52 опасность
перегрева
1007.1 1007.0 +34.4
15 14.11 штиль 0 4000 м 5/5 600 м
[Sc]
+28.4 +27.0 92 +45 +45 опасность
перегрева
1008.9 1009.0
18 14.11 штиль 0 4000 м 5/5 600 м
[Sc]
+28.0 +26.6 92 +43 +43 опасность
перегрева
1009.4 1009.0
00 15.11 штиль 0 4000 м 5/5 600 м
[Sc]
+27.0 +26.4 97 +41 +41 опасность
перегрева
1008.4 1008.0
03 15.11 штиль 0 10 км 3/3 600 м
[Sc]
+29.0 +27.1 90 +46 +49 опасность
перегрева
1010.4 1010.0 +24.6 +34.4
06 15.11 З 2 10 км 6/5 600 м
[Sc Ac trans]
+32.8 +25.6 66 +48 +55 опасность
перегрева
1010.4 1010.0
09 15.11 штиль 0 10 км 8/4 600 м
[Sc Ac trans]
+33.4 +28.5 76 +56 +62 опасность
перегрева
1008.1 1008.0
12 15.11 штиль 0 10 км 3/3 600 м
[Sc]
+31.0 +29.4 91 +55 +56 опасность
перегрева
1008.0 1008.0 +34.2
15 15.11 штиль 0 4000 м 5/5 600 м
[Sc]
+28.6 +27.8 95 +47 +47 опасность
перегрева
1009.8 1010.0
18 15.11 штиль 0 4000 м 5/5 600 м
[Sc]
+27.8 +27.2 97 +44 +44 опасность
перегрева
1010.1 1010.0
21 15.11 штиль 0 4000 м 3/3 600 м
[Sc]
+27.2 +26.6 97 +42 +42 опасность
перегрева
1008.6 1009.0
00 16.11 З 2 4000 м 5/5 600 м
[Sc]
+28.0 +27.4 97 +45 +45 опасность
перегрева
1008.4 1008.0
03 16.11 штиль 0 10 км 8/4 600 м
[Sc Ac trans]
+29.0 +27.6 92 +47 +48 опасность
перегрева
1011.3 1011.0 +25.3 +34.2
06 16.11 штиль 0 10 км 8/4 600 м
[Sc Ac trans]
+31.0 +29.4 91 +55 +62 опасность
перегрева
1010.5 1011.0
09 16.11 З 2 10 км 4/4 600 м
[Sc]
+31.0 +29.4 91 +55 +62 опасность
перегрева
1007.9 1008.0
12 16.11 ЮЗ 1 10 км 5/5 600 м
[Sc]
+30.4 +26.5 80 +47 +47 опасность
перегрева
1007.0 1007.0 +32.1
15 16.11 штиль 0 4000 м 6/4 600 м
[Sc Ac trans]
+29.6 +26.8 85 +46 +46 опасность
перегрева
1008.9 1009.0
18 16.11 З 2 4000 м 8/5 600 м
[Sc Ac trans]
+29.0 +27.1 90 +46 +46 опасность
перегрева
1008.6 1009.0
21 16.11 штиль 0 4000 м 8/4 600 м
[Sc Ac trans]
+29.2 +26.4 85 +45 +45 опасность
перегрева
1007.3 1007.0
00 17.11 З 2 4000 м гроза без осадков 10/5 540 м
[Cb cap Ac As]
+29.0 +27.6 92 +47 +47 опасность
перегрева
1006.3 1006.0
03 17.11 штиль 0 4000 м {гроза} 10/6 540 м
[Sc As op]
+25.4 +25.4 100 +37 +37 очень
душно
1009.4 1009.0 +22.6 +32.1 32
06 17.11 В 2 10 км 10/5 600 м
[Sc As op]
+28.6 +25.3 82 +42 +43 опасность
перегрева
1009.5 1010.0
09 17.11 З 2 10 км 10/5 600 м
[Sc diur, vesp Ac As]
+29.0 +26.2 85 +44 +46 опасность
перегрева
1005.6 1006.0
12 17.11 В 3 10 км 10/5 600 м
[Sc diur, vesp Ac As]
+28.4 +26.4 89 +43 +44 опасность
перегрева
1004.8 1005.0 +29.7
15 17.11 В 3 4000 м {гроза, дождь} 9/4 600 м
[Cu Sc Ac trans]
+28.0 +26.3 91 +43 +43 опасность
перегрева
1008.1 1008.0 0.0
18 17.11 В 3 4000 м {гроза, дождь} 8/4 600 м
[Cu Sc Ac trans]
+28.0 +25.7 87 +41 +41 опасность
перегрева
1008.4 1008.0

 

Местоположение метеостанции Aminidivi (Lakshadweep, Индия): широта 11.12 долгота 72.73 высота над уровнем моря 3 м.

В архиве по умолчанию представлена погода в Aminidivi за последнюю неделю. Архивные данные за месяц целиком и за предыдущие месяцы, начиная с января 2011 года, Вы можете получить, выбрав интересующий диапазон дат из раскрывающегося списка и нажав кнопку "Ввод!".


*Определитесь, кто Вы:
робот инопланетянин человек

Внимание! Время в таблицах - всемирное. Для получения местного времени необходимо прибавить поправку, которая в Aminidivi равна 5.5 ч.

Смотрите также архив погоды в соседних городах и на ближайших метеорологических станциях:

Погода в Agathi (Lakshadweep, Индия) (68 км)
Погода в Cannanore (Kerala, Индия) (294 км)
Погода в Mangalore (Karnataka, Индия) (306 км)
Погода в Mangalore Airport (Karnataka, Индия) (308 км)
Погода в Minicoy (Lakshadweep, Индия) (317 км)
Погода в Kozhikode (Kerala, Индия) (333 км)
Погода в Karipur (Kerala, Индия) (351 км)
Погода в Madikeri (Karnataka, Индия) (357 км)
Погода в Agumbe Emo (Karnataka, Индия) (368 км)
Погода в Shirali (Karnataka, Индия) (382 км)

Пояснения к столбцам:

Ветер - указаны скорость ветра в м/с - средняя за 10 мин, порывы в срок и между сроками (в фигурных скобках) и направление, откуда дует ветер: С - северный, СВ - северо-восточный, В - восточный, ЮВ - юго-восточный, Ю - южный, ЮЗ - юго-западный, З - западный, СЗ - северо-западный.
Видимость - горизонтальная дальность видимости в метрах или километрах. При видимости от 1 до 10 км при отсутствии осадков обычно наблюдается дымка, при ухудшении видимости до 1 км и менее - туман. В сухую погоду видимость может ухудшаться дымом, пылью или мглою.
Явления - указаны атмосферные явления, наблюдавшиеся в срок или в последний час перед сроком; фигурными скобками обозначены явления, наблюдавшиеся между сроками (за 1-3 часа до срока); квадратными скобками обозначены град или гололедные отложения с указанием их диаметра в мм.
Облачность - указаны через наклонную черту общая и нижняя облачность в баллах и высота нижней границы облаков в метрах; квадратными скобками обозначены формы облаков: Ci - перистые, Cs - перисто-слоистые, Cc - перисто-кучевые, Ac - высококучевые, As - высокослоистые, Sc - слоисто-кучевые, Ns - слоисто-дождевые, Cu - кучевые, Cb - кучево-дождевые. Подробнее классификацию облаков см. в Атласе облаков (PDF).
T - Температура воздуха - температура, измеренная на высоте 2 м над землей.
Td - Температура точки росы - температура, при понижении до которой содержащийся в воздухе водяной пар достигнет насыщения.
f - Относительная влажность воздуха - влажноcть воздуха, измеренная на высоте 2 м над землей.
Te - Эффективная температура - температура, которую ощущает одетый по сезону человек в тени. Характеристика душности погоды. При расчете учитывается влияние влажности воздуха и скорости ветра на теплоощущения человека.
Tes - Эффективная температура на солнце - температура, которую ощущает человек, с поправкой на солнечный нагрев. Характеристика знойности погоды. Зависит от высоты солнца над горизонтом, облачности и скорости ветра. Ночью, в пасмурную погоду, а также при ветре 12 м/с и более поправка равна нулю.
P - Атмосферное давление - приведенное к уровню моря атмосферное давление.
Po - Атмосферное давление - измеренное на уровне метеостанции атмосферное давление.
Tmin - Минимальная температура - минимум температуры воздуха на высоте 2 м над землей.
Tmax - Максимальная температура - максимум температуры воздуха на высоте 2 м над землей.
R - Количество осадков - Количество выпавших осадков за период времени, мм. При наведении курсора мыши на число - период времени, за который выпало указанное количество осадков.
R24 - Количество осадков - Количество выпавших осадков за 24 часа, мм.
S - Снежный покров - Высота снежного покрова, см. При наведении курсора мыши на число - состояние снежного покрова и степень покрытия местности в баллах.